Content
SEND FEEDBACK

Daily
Averages
Monthly
Summary
United States of America

GREENSBURG, INDIANA


Home > North America > United States > Indiana
Elevation: 949 feet     Latitude: 39 20N     Longitude: 085 28W

WEATHER
 
SELECT A DAY
Number of Records: 173,019;   Date Range: 10/15/98 - 8/28/14
 
SHARE

PRINT THIS DATA

[ ← Previous Day ]
WEATHER ALMANAC - JANUARY 2, 2014
[ Next Day → ]
[ °C ]   °F
Weather ElementAverageHighLow
Temperature22.9 °F32 °F (12:50 am)6.1 °F (11:53 pm)
Dewpoint17.4 °F28.9 °F (1:29 am)-4 °F (11:53 pm)
Humidity79.7 %93 % (2:49 am)63 % (11:53 pm)
Barometer30.00 in30.36 in (11:53 pm)29.87 in (6:20 am)
Wind Speed13.4 mph23 mph (5:46 pm)
Wind Gust29.9 mph (5:37 pm)
Weather ElementAverage
Visibility2.8 mi
Wind DirectionWSW (244.2 °)

Weather ElementTotal
Precipitation0.52 in
Heating Degree Days46 (Base 65)
Averaged from 53 records on January 2, 2014
WEATHER CONDITIONS BREAKOUT
WIND DIRECTION BREAKOUT
WEATHER BY HOUR - JANUARY 2, 2014
[ °C ]   °F
Local TimeTemperatureDewpointHumidityBarometerVisibilityWind DirectionWind SpeedGust SpeedPrecipitationEventsConditions
12:50 AM32.0 °F28.4 °F87 %29.99 in2.5 miNorth (10°)6.9 mph0.00 inSnowLight Snow
12:53 AM32.0 °F28.0 °F85 %30.01 in3.0 miNNE (20°)6.9 mph0.00 inSnowLight Snow
1:29 AM32.0 °F28.9 °F88 %29.99 in2.0 miNorth (360°)5.8 mph0.00 inSnowLight Snow
1:36 AM32.0 °F28.9 °F88 %29.99 in1.5 miNorth (10°)4.6 mph0.00 inSnowLight Snow
1:53 AM32.0 °F28.9 °F88 %30.01 in1.0 miNNE (20°)4.6 mph0.02 inSnowLight Snow
2:32 AM30.9 °F28.0 °F89 %29.97 in1.0 miENE (70°)5.8 mph0.03 inSnowLight Snow
2:49 AM30.2 °F28.4 °F93 %29.96 in1.0 miEast (80°)8.1 mph0.04 inSnowLight Snow
2:53 AM30.9 °F28.0 °F89 %29.98 in0.8 miEast (90°)9.2 mph0.04 inSnowLight Snow
3:21 AM30.9 °F28.0 °F89 %29.94 in0.8 miEast (80°)10.4 mph0.03 inSnowLight Snow
3:53 AM30.9 °F28.0 °F89 %29.94 in0.8 miEast (80°)9.2 mph0.08 inSnowLight Snow
4:14 AM30.9 °F28.0 °F89 %29.91 in0.8 miENE (70°)8.1 mph0.02 inSnowLight Snow
4:25 AM30.9 °F28.0 °F89 %29.91 in0.8 miENE (60°)5.8 mph0.03 inSnowLight Snow
4:44 AM30.9 °F28.0 °F89 %29.90 in1.0 miNE (40°)5.8 mph0.05 inSnowLight Snow
4:53 AM30.9 °F28.0 °F89 %29.92 in1.2 miNNE (30°)4.6 mph0.05 inSnowLight Snow
5:36 AM30.0 °F26.1 °F85 %29.88 in2.0 miNE (40°)8.1 mph0.01 inSnowLight Snow
5:53 AM30.0 °F26.1 °F85 %29.90 in2.5 miNE (40°)9.2 mph0.02 inSnowLight Snow
6:20 AM28.9 °F25.0 °F85 %29.87 in1.5 miNNE (20°)10.4 mph0.01 inSnowLight Snow
6:41 AM28.0 °F24.1 °F85 %29.88 in1.2 miNorth (10°)9.2 mph0.02 inSnowLight Snow
6:53 AM27.0 °F23.0 °F85 %29.90 in1.0 miNorth (360°)10.4 mph0.03 inSnowLight Snow
7:08 AM26.1 °F21.9 °F84 %29.88 in0.8 miNorth (360°)11.5 mph0.01 inSnowLight Snow
7:20 AM25.0 °F21.0 °F85 %29.88 in1.0 miNorth (350°)12.7 mph0.01 inSnowLight Snow
7:53 AM24.1 °F19.0 °F81 %29.90 in1.2 miNorth (360°)12.7 mph0.02 inSnowLight Snow
8:10 AM23.0 °F19.0 °F85 %29.89 in0.8 miNorth (350°)15.0 mph0.00 inSnowLight Snow
8:22 AM23.0 °F19.0 °F85 %29.89 in1.2 miNorth (360°)15.0 mph0.00 inSnowLight Snow
8:40 AM23.0 °F18.0 °F81 %29.89 in1.8 miNorth (350°)13.8 mph0.00 inSnowLight Snow
8:53 AM23.0 °F18.0 °F81 %29.91 in1.5 miNorth (350°)13.8 mph0.00 inSnowLight Snow
9:28 AM21.9 °F17.1 °F82 %29.92 in3.0 miNNW (340°)16.1 mph0.00 inSnowLight Snow
9:53 AM21.0 °F16.0 °F81 %29.96 in4.0 miNorth (350°)17.3 mph0.00 inSnowLight Snow
10:12 AM21.0 °F15.1 °F78 %29.94 in2.0 miNorth (10°)16.1 mph0.00 inSnowLight Snow
10:28 AM21.0 °F14.0 °F74 %29.94 in3.0 miNorth (360°)18.4 mph0.00 inSnowLight Snow
10:46 AM19.9 °F12.9 °F74 %29.95 in2.0 miNorth (360°)15.0 mph21.9 mph0.00 inSnowLight Snow
10:53 AM21.0 °F14.0 °F74 %29.98 in2.0 miNorth (360°)15.0 mph0.00 inSnowLight Snow
11:12 AM19.9 °F12.9 °F74 %29.95 in1.8 miNorth (350°)20.7 mph0.00 inSnowLight Snow
11:23 AM19.9 °F12.9 °F74 %29.96 in2.0 miNNW (340°)18.4 mph0.00 inSnowLight Snow
11:53 AM19.0 °F10.9 °F71 %29.99 in2.0 miNorth (360°)17.3 mph26.5 mph0.00 inSnowLight Snow
11:57 AM19.0 °F10.9 °F71 %29.96 in3.0 miNorth (360°)18.4 mph26.5 mph0.00 inSnowLight Snow
12:14 PM19.0 °F10.9 °F71 %29.96 in4.0 miNNW (340°)16.1 mph0.00 inSnowLight Snow
12:53 PM18.0 °F10.9 °F74 %29.99 in3.0 miNorth (350°)21.9 mph0.00 inSnowLight Snow
1:53 PM19.0 °F10.9 °F71 %30.00 in3.0 miNNW (340°)19.6 mph0.00 inSnowLight Snow
2:06 PM19.0 °F12.0 °F74 %29.98 in1.8 miNNW (340°)19.6 mph0.00 inSnowLight Snow
2:53 PM18.0 °F10.9 °F74 %30.04 in1.0 miNNW (340°)19.6 mph0.00 inSnowLight Snow
3:53 PM18.0 °F10.9 °F74 %30.08 in1.2 miNNW (340°)17.3 mph0.00 inSnowLight Snow
4:53 PM17.1 °F10.9 °F77 %30.12 in1.5 miNNW (340°)20.7 mph0.00 inSnowLight Snow
5:25 PM16.0 °F10.0 °F77 %30.12 in2.0 miNNW (340°)20.7 mph27.6 mph0.00 inSnowLight Snow
5:37 PM16.0 °F9.0 °F74 %30.13 in3.0 miNNW (340°)19.6 mph29.9 mph0.00 inSnowLight Snow
5:46 PM16.0 °F9.0 °F74 %30.13 in5.0 miNNW (340°)23.0 mph0.00 inSnowLight Snow
5:53 PM16.0 °F9.0 °F74 %30.17 in6.0 miNorth (350°)20.7 mph0.00 inHaze
6:53 PM15.1 °F8.1 °F74 %30.22 in7.0 miNNW (340°)18.4 mph0.00 inSnowLight Snow
7:53 PM15.1 °F7.0 °F70 %30.27 in9.0 miNNW (340°)17.3 mph26.5 mph0.00 inOvercast
8:53 PM12.9 °F5.0 °F71 %30.29 in10.0 miNNW (340°)16.1 mphMostly Cloudy
9:53 PM10.9 °F1.0 °F64 %30.32 in10.0 miNorth (350°)11.5 mphPartly Cloudy
10:53 PM7.0 °F-2.0 °F67 %30.34 in10.0 miNNW (330°)8.1 mphClear
11:53 PM6.1 °F-4.0 °F63 %30.36 in10.0 miNW (320°)10.4 mphClear
Hourly data recorded from KGEZ, located miles away from Greensburg, Indiana







STORIES FROM OUR PARTNERS